Total_Precipitation_Accumulation
2.56 2.55 2.47 2.53 2.51 2.48 2.37 2.20 2.04 1.97 1.80 1.66 1.56 1.60 1.62 1.55 1.53 1.56 1.53 1.58 1.67 1.70 1.74 1.84 1.94 1.99 2.09 2.12 2.19 2.22 2.31 2.35 2.30 2.05 1.91 1.89 1.87 1.84 1.85 1.71 1.61 1.53 1.41
2.29 2.36 2.45 2.48 2.40 2.28 2.09 1.97 1.84 1.72 1.55 1.48 1.45 1.50 1.48 1.36 1.35 1.33 1.27 1.31 1.41 1.51 1.59 1.66 1.74 1.76 1.83 1.81 1.90 1.96 1.99 2.04 2.07 2.10 2.11 2.05 1.99 1.93 1.85 1.68 1.43 1.26 1.22
2.12 2.08 2.24 2.31 2.19 2.04 1.90 1.82 1.72 1.58 1.50 1.49 1.45 1.42 1.39 1.29 1.21 1.17 1.18 1.18 1.16 1.25 1.36 1.42 1.48 1.49 1.47 1.44 1.50 1.51 1.61 1.72 1.91 1.97 1.96 2.01 2.00 2.00 2.05 1.76 1.52 1.47 1.13
2.08 2.23 2.26 2.19 2.04 1.94 1.76 1.58 1.48 1.38 1.40 1.46 1.41 1.32 1.21 1.13 1.08 1.12 1.17 1.16 1.11 1.12 1.15 1.19 1.21 1.16 1.12 1.15 1.17 1.22 1.36 1.62 1.80 1.85 1.76 1.77 1.85 1.84 2.01 1.89 1.73 1.60 1.35
2.04 2.04 1.99 1.91 1.84 1.81 1.75 1.60 1.44 1.30 1.25 1.32 1.26 1.20 1.12 1.02 0.95 0.99 1.05 1.06 1.06 1.03 1.03 1.03 0.99 0.97 0.99 0.97 0.92 1.03 1.23 1.48 1.61 1.68 1.68 1.63 1.62 1.68 1.75 1.67 1.65 1.64 1.51
1.75 1.75 1.68 1.66 1.70 1.65 1.63 1.52 1.42 1.31 1.25 1.27 1.23 1.12 0.99 0.85 0.87 0.89 0.85 0.90 1.00 1.06 1.03 0.94 0.89 0.85 0.83 0.84 0.85 0.94 1.06 1.19 1.31 1.44 1.49 1.50 1.50 1.54 1.66 1.65 1.64 1.66 1.63
1.60 1.54 1.54 1.54 1.50 1.48 1.35 1.29 1.33 1.36 1.29 1.22 1.13 1.02 0.93 0.86 0.80 0.76 0.79 0.87 0.96 1.04 1.06 1.07 0.92 0.76 0.83 0.87 0.89 0.95 0.99 1.03 1.12 1.29 1.38 1.37 1.43 1.55 1.73 1.70 1.70 1.67 1.60
1.53 1.45 1.38 1.39 1.34 1.31 1.29 1.28 1.28 1.29 1.25 1.21 1.11 1.00 0.91 0.81 0.78 0.77 0.79 0.81 0.93 0.98 0.98 1.00 1.01 0.95 0.90 0.94 0.93 0.95 0.98 1.04 1.10 1.18 1.32 1.34 1.29 1.41 1.61 1.62 1.62 1.59 1.50
1.30 1.25 1.16 1.20 1.26 1.27 1.24 1.31 1.29 1.20 1.15 1.09 1.03 1.00 0.95 0.83 0.76 0.72 0.77 0.85 0.93 0.89 0.83 0.82 0.82 0.82 0.82 0.90 0.98 1.06 1.07 1.06 0.95 1.01 1.07 1.14 1.24 1.32 1.39 1.44 1.56 1.70 1.63
1.16 1.14 1.04 1.05 1.12 1.20 1.22 1.25 1.16 1.09 1.06 0.94 0.91 0.96 0.95 0.89 0.76 0.68 0.72 0.75 0.81 0.80 0.78 0.75 0.74 0.69 0.67 0.66 0.77 0.97 1.09 1.05 0.99 1.00 1.12 1.27 1.35 1.39 1.36 1.41 1.54 1.64 1.62
0.98 1.04 1.04 1.03 1.04 1.06 1.08 1.13 1.09 1.02 1.00 0.99 0.98 1.00 1.00 0.93 0.78 0.68 0.66 0.66 0.69 0.72 0.75 0.75 0.73 0.64 0.55 0.56 0.67 0.84 0.92 0.91 1.00 1.22 1.44 1.49 1.49 1.43 1.34 1.32 1.46 1.58 1.62
0.95 1.08 1.09 1.06 0.95 0.93 1.07 1.13 1.06 1.01 0.96 1.00 1.01 1.01 1.02 0.98 0.82 0.70 0.64 0.62 0.64 0.67 0.72 0.71 0.67 0.62 0.53 0.56 0.63 0.75 0.80 0.90 1.13 1.38 1.54 1.51 1.33 1.18 1.17 1.17 1.24 1.39 1.50
1.02 1.08 1.10 1.03 1.00 0.99 1.04 1.05 0.98 0.95 0.88 0.87 0.89 0.92 0.93 0.86 0.79 0.71 0.65 0.60 0.60 0.63 0.64 0.63 0.61 0.62 0.64 0.73 0.79 0.80 0.87 1.06 1.26 1.37 1.37 1.28 1.17 1.11 1.12 1.17 1.15 1.29 1.35
1.06 1.04 1.03 1.04 1.03 0.97 0.92 0.89 0.86 0.85 0.80 0.76 0.78 0.81 0.77 0.75 0.69 0.59 0.56 0.55 0.55 0.59 0.61 0.66 0.73 0.79 0.82 0.85 0.92 1.00 1.05 1.12 1.13 1.21 1.21 1.15 1.07 1.09 1.13 1.10 1.13 1.21 1.34
0.99 0.91 0.90 0.93 0.90 0.87 0.76 0.71 0.70 0.65 0.58 0.56 0.57 0.59 0.58 0.58 0.58 0.52 0.50 0.51 0.49 0.52 0.59 0.73 0.91 0.98 1.00 0.99 0.97 1.00 1.04 1.05 1.06 1.05 1.03 1.02 1.04 1.04 1.04 1.01 1.06 1.09 1.22
0.87 0.82 0.78 0.80 0.79 0.73 0.69 0.64 0.58 0.47 0.44 0.41 0.39 0.41 0.42 0.47 0.46 0.39 0.41 0.44 0.45 0.54 0.63 0.86 0.99 1.03 1.05 0.95 0.90 0.88 0.88 0.89 0.86 0.87 0.90 0.94 0.98 0.97 0.97 0.96 1.00 1.05 1.13
0.80 0.79 0.69 0.66 0.69 0.68 0.64 0.65 0.67 0.53 0.43 0.40 0.39 0.41 0.43 0.43 0.41 0.40 0.38 0.43 0.48 0.53 0.62 0.76 0.87 0.94 0.95 0.86 0.81 0.82 0.83 0.81 0.80 0.82 0.86 0.90 0.92 0.91 0.93 0.96 0.96 1.01 1.05
0.67 0.63 0.60 0.60 0.59 0.56 0.56 0.56 0.59 0.66 0.66 0.60 0.48 0.45 0.45 0.47 0.47 0.44 0.42 0.49 0.56 0.56 0.65 0.70 0.76 0.83 0.86 0.82 0.80 0.81 0.81 0.80 0.81 0.82 0.84 0.89 0.93 0.92 0.89 0.88 0.90 0.91 0.96
0.53 0.49 0.48 0.46 0.46 0.48 0.50 0.49 0.51 0.56 0.62 0.65 0.63 0.55 0.50 0.54 0.54 0.53 0.50 0.50 0.58 0.63 0.66 0.68 0.67 0.71 0.73 0.75 0.78 0.79 0.78 0.77 0.78 0.78 0.79 0.84 0.88 0.88 0.88 0.83 0.81 0.81 0.88
0.49 0.43 0.39 0.37 0.37 0.39 0.41 0.45 0.50 0.51 0.52 0.58 0.61 0.55 0.52 0.58 0.62 0.61 0.54 0.52 0.58 0.62 0.61 0.65 0.66 0.66 0.67 0.65 0.65 0.68 0.72 0.70 0.68 0.70 0.76 0.82 0.86 0.87 0.83 0.77 0.78 0.83 0.88
0.39 0.37 0.34 0.31 0.35 0.36 0.37 0.40 0.46 0.45 0.49 0.53 0.50 0.47 0.52 0.58 0.64 0.60 0.58 0.57 0.62 0.66 0.67 0.65 0.63 0.64 0.61 0.58 0.59 0.61 0.63 0.63 0.63 0.65 0.69 0.76 0.76 0.75 0.73 0.68 0.66 0.67 0.71
0.34 0.34 0.29 0.28 0.30 0.33 0.36 0.38 0.39 0.42 0.44 0.44 0.44 0.43 0.50 0.53 0.58 0.60 0.60 0.62 0.64 0.66 0.67 0.66 0.63 0.61 0.59 0.57 0.57 0.57 0.58 0.61 0.65 0.67 0.67 0.66 0.64 0.61 0.60 0.59 0.57 0.57 0.61
0.29 0.31 0.30 0.28 0.29 0.32 0.35 0.39 0.37 0.35 0.37 0.40 0.42 0.41 0.42 0.48 0.53 0.59 0.61 0.62 0.66 0.66 0.65 0.64 0.61 0.57 0.56 0.53 0.51 0.52 0.54 0.55 0.55 0.56 0.59 0.59 0.57 0.55 0.53 0.54 0.55 0.57 0.60
0.26 0.29 0.28 0.26 0.27 0.31 0.34 0.33 0.30 0.29 0.35 0.40 0.43 0.44 0.43 0.46 0.50 0.57 0.63 0.66 0.66 0.64 0.61 0.57 0.53 0.50 0.50 0.49 0.46 0.44 0.45 0.45 0.43 0.42 0.46 0.48 0.47 0.48 0.48 0.51 0.53 0.55 0.58
0.24 0.25 0.24 0.24 0.26 0.32 0.32 0.28 0.27 0.28 0.30 0.36 0.41 0.45 0.44 0.45 0.50 0.57 0.63 0.68 0.68 0.63 0.54 0.51 0.47 0.44 0.44 0.43 0.41 0.38 0.41 0.41 0.39 0.38 0.42 0.45 0.42 0.43 0.46 0.50 0.54 0.52 0.53
0.22 0.24 0.23 0.26 0.28 0.26 0.26 0.27 0.28 0.29 0.31 0.33 0.36 0.41 0.43 0.48 0.52 0.54 0.55 0.58 0.60 0.59 0.51 0.44 0.40 0.38 0.39 0.39 0.37 0.37 0.36 0.35 0.35 0.39 0.40 0.43 0.42 0.42 0.42 0.46 0.49 0.50 0.51